Regional Weather Roundup
Issued by NWS

Home | Current Version | Previous Version | Text Only | Print | Product List | Glossary Off
Versions: 1 2 3 4 5 6 7 8 9 10 11 12 13 14 15 16 17 18 19 20 21 22 23 24 25 26 27 28 29 30 31 32 33 34 35 36 37 38 39 40 41 42 43 44 45 46 47 48 49 50

000
ASUS43 KMKX 180700
RWRWI

WISCONSIN REGIONAL WEATHER ROUNDUP
NATIONAL WEATHER SERVICE MILWAUKEE/SULLIVAN WI
100 AM CST THU DEC 18 2014

NOTE: "FAIR" INDICATES FEW OR NO CLOUDS BELOW 12,000 FEET WITH NO
SIGNIFICANT WEATHER AND/OR OBSTRUCTIONS TO VISIBILITY.

WIZ001-002-006>008-014>016-023>028-180800-
NORTHWEST WISCONSIN

CITY           SKY/WX    TMP DP  RH WIND       PRES   REMARKS
SUPERIOR ARPT  CLOUDY    19  17  89 W3        30.34S
ASHLAND        CLOUDY    24  21  88 CALM      30.31R
HAYWARD        CLOUDY    19  14  81 CALM      30.30R
SIREN          FLURRIES  17  14  88 CALM      30.33S
CUMBERLAND     CLOUDY    19  14  79 N3        30.28F
RICE LAKE      CLOUDY    20  16  82 NW5       30.31F WCI  14
CHETEK         CLOUDY    19  15  83 CALM      30.30F
LADYSMITH      CLOUDY    21  18  86 NW7       30.30S WCI  13
EAU CLAIRE     NOT AVBL
MENOMONIE      CLOUDY    19  15  82 CALM      30.32R
NEW RICHMOND   CLOUDY    17  14  88 CALM      30.31S
OSCEOLA        CLOUDY    16  13  90 CALM      30.35S
$$

WIZ003>005-009-010-017-018-180800-
NORTH CENTRAL WISCONSIN

CITY           SKY/WX    TMP DP  RH WIND       PRES   REMARKS
MANITOWISH WTR CLOUDY    21  20  96 NE5       30.23S WCI  14
ARBOR VITAE    CLOUDY    23  20  89 NE3       30.22S
WOODRUFF       CLOUDY    23  20  89 NE3       30.22S
RHINELANDER    CLOUDY    21  18  88 NE3       30.23R
EAGLE RIVER    CLOUDY    21  20  94 NE9       30.22R WCI  11
LAND O LAKES   CLOUDY    21  19  93 N7        30.23R WCI  13
PHILLIPS       CLOUDY    20  17  88 E3        30.26R
TOMAHAWK       CLOUDY    21  18  88 CALM      30.25R
MEDFORD        CLOUDY    21  18  90 NW3       30.24S
MERRILL        CLOUDY    23  19  87 N6        30.25R WCI  15
$$

WIZ029-030-035-036-043>047-180800-
CENTRAL WISCONSIN

CITY           SKY/WX    TMP DP  RH WIND       PRES   REMARKS
WAUSAU         CLOUDY    24  18  77 N5        30.25R WCI  18
MOSINEE        CLOUDY    23  23 100 NW5       30.26S WCI  17
MARSHFIELD     CLOUDY    20  15  81 NW8       30.26R WCI  10
STEVENS POINT  CLOUDY    21  17  83 W5        30.26F WCI  15
WAUPACA        CLOUDY    24  17  75 W3        30.27F
WAUTOMA        NOT AVBL
WISC RAPIDS    CLOUDY    20  13  74 NW5       30.29R WCI  13
CAMP DOUGLAS   NOT AVBL
$$

WIZ011>013-019>022-031-037>040-048>050-180800-
NORTHEAST WISCONSIN

CITY           SKY/WX    TMP DP  RH WIND       PRES   REMARKS
ANTIGO         CLOUDY    22  19  91 N6        30.22R WCI  14
SHAWANO        CLOUDY    28  22  78 W3        30.26S
OCONTO         CLOUDY    27  23  87 NW5       30.25S WCI  21
STURGEON BAY   CLOUDY    28  21  74 N10       30.23S WCI  19
GREEN BAY      CLOUDY    27  21  78 NW7       30.26R WCI  19
MANITOWOC      NOT AVBL
APPLETON       CLOUDY    23  19  86 W8        30.26S WCI  14
CLINTONVILLE   CLOUDY    27  21  80 W5        30.26S WCI  21
OSHKOSH        CLOUDY    22  16  78 W7        30.27R WCI  13
$$

WIZ032>034-041-042-053>061-180800-
SOUTHWEST WISCONSIN

CITY           SKY/WX    TMP DP  RH WIND       PRES   REMARKS
LA CROSSE      CLOUDY    19  13  77 NW5       30.32F WCI  12
SPARTA         CLOUDY    20  13  75 CALM      30.31F
VIROQUA        PTCLDY    15  13  92 NW3       30.26F
BOSCOBEL       CLEAR     14  11  87 CALM      30.32F
PRAIRIE DU CHI CLEAR     17  13  87 CALM      30.32F
PLATTEVILLE    CLEAR     15  13  92 CALM      30.28F
$$

WIZ056-057-062-063-064-067-068-180800-
SOUTH CENTRAL WISCONSIN

CITY           SKY/WX    TMP DP  RH WIND       PRES   REMARKS
REEDSBURG      CLOUDY    18  14  84 CALM      30.29F
BARABOO/DELLS  CLOUDY    18  14  84 W3        30.28F
LONE ROCK      NOT AVBL
MINERAL POINT  PTCLDY    19  16  86 CALM      30.27F
MADISON        CLEAR     17  13  84 CALM      30.28F
MIDDLETON      CLEAR     19  13  80 W6        30.28F WCI  10
WATERTOWN      CLEAR     17  14  87 SW3       30.27S
MONROE         CLOUDY    21  18  86 N7        30.26F WCI  13
JANESVILLE     PTCLDY    19  16  86 CALM      30.28F
$$

WIZ051-052-058>065-066-070>072-180800-
SOUTHEAST WISCONSIN

CITY           SKY/WX    TMP DP  RH WIND       PRES   REMARKS
MILWAUKEE      CLEAR     21  13  71 NW9       30.26F WCI  11
WAUKESHA       CLEAR     18  14  86 W6        30.27S WCI   9
MILWAUKEE/TIMM CLEAR     19  14  79 NW6       30.27F WCI  11
RACINE         CLEAR     19  13  77 W6        30.29R WCI  11
BURLINGTON     CLEAR     17  13  84 W3        30.28S
KENOSHA        CLEAR     19  14  81 W7        30.27F WCI  10
FOND DU LAC    CLOUDY    22  15  75 CALM      30.27S
SHEBOYGAN      CLOUDY    23  17  78 W9        30.26R WCI  13
WEST BEND      PTCLDY    21  16  79 NW6       30.25S WCI  14
JUNEAU         CLOUDY    19  15  82 W3        30.28S
$$

LSZ147-162-180800-
LAKE SUPERIOR

STATION/POSITION TIME  TEMP    WIND        PRES    WAVE
                       AIR SEA DIR/SP/G            HT/PER
                 (UTC) (F)     (DEG/KT/KT) (MB)    (FT/S)
DEVILS ISLAND    0600   26      80/ 14/ 16 1027.8R
PORT WING        0640   24     110/  2/  4 1027.1R
SAXON HARBOR     0600   25        CALM     1026.1R
$$

LMZ867-665-643>646-180800-
LAKE MICHIGAN

STATION/POSITION TIME  TEMP    WIND        PRES    WAVE
                       AIR SEA DIR/SP/G            HT/PER
                 (UTC) (F)     (DEG/KT/KT) (MB)    (FT/S)
CHAMBERS ISLAND  0600   29     330/ 17/ 20 1023.4R
NORTHPORT PIER   0600   29     340/ 17/ 22 1022.7R
SISTER BAY       0613          360/ 18/ 23   N/A
ALGOMA LAKESHORE 0514          320/  9/ 12   N/A
KEWAUNEE LAKESHO 0600   27     310/  5/  8 1022.9R
SHEBOYGAN LAKESH 0600   24 34  280/ 12/ 16 1025.7R
PORT WASHINGTON  0600   22     300/  8/ 10 1025.4
MILWAUKEE LAKESH 0600   22     290/ 10/ 13   N/A
KENOSHA   LAKESH 0600   21     260/  9/ 12 1025.4S
$$

TC  - TEMPERATURE IN CELSIUS
VSB - VISIBILITY IN STATUTE MILES
WCI - WIND CHILL INDEX
HX  - HEAT INDEX



USA.gov is the U.S. government's official web portal to all federal, state and local government web resources and services.